Racine, WI

8:02 AM CDT on May 28, 2017 (GMT -0500)
Batten

Weather History for KRAC - January, 2014

Change the Weather History Date:

Sunday, January 26, 2014

  Actual Average Record
Temperature  
Mean Temperature 16 °F -  
Max Temperature 26 °F 27 °F 55 °F (1973)
Min Temperature 5 °F 12 °F -8 °F (1957)
Degree Days  
Heating Degree Days 50    
Moisture  
Dew Point 7 °F    
Average Humidity 75    
Maximum Humidity 89    
Minimum Humidity 59    
Precipitation  
Precipitation 0.00 in - - ()
Sea Level Pressure  
Sea Level Pressure 29.54 in    
Wind  
Wind Speed 10 mph (WSW)    
Max Wind Speed 25 mph    
Max Gust Speed 39 mph    
Visibility 4 miles    
Events Fog , Snow    
Averages and records for this station are not official NWS values.
T = Trace of Precipitation, MM = Missing Value Source: NWS Daily Summary

Daily Weather History Graph

Daily Weather History Graph

Search for Another Location

Airport or City:

Trip Planner

Search our weather history database for the weather conditions in past years. The results will help you decide how hot, cold, wet, or windy it might be!

Date:

Astronomy

Jan. 26, 2014 Rise Set
Actual Time 7:11 AM CST 4:56 PM CST
Civil Twilight 6:41 AM CST 5:27 PM CST
Nautical Twilight 6:06 AM CST 6:01 PM CST
Astronomical Twilight 5:33 AM CST 6:34 PM CST
Moon 2:48 AM CST (1/26) 12:45 PM CST (1/26)
Length of Visible Light 10h 46m
Length of Day
9h 45m
Waning Crescent, 23% of the Moon is Illuminated
Jan 26
Waning Crescent
Jan 30
New
Feb 6
First Quarter
Feb 14
Full
Feb 22
Last Quarter

Hourly Weather History & Observations

Time (CST) Temp. Windchill Dew Point Humidity Pressure Visibility Wind Dir Wind Speed Gust Speed Precip Events Conditions
12:53 AM 6.1 °F -2.8 °F -4.0 °F 63% 29.75 in 10.0 mi SW 4.6 mph - N/A   Overcast
1:53 AM 6.1 °F -6.8 °F -4.0 °F 63% 29.71 in 10.0 mi SSW 8.1 mph - N/A   Overcast
2:49 AM 6.8 °F -4.8 °F -2.2 °F 67% 29.68 in 2.5 mi SW 6.9 mph - 0.00 in Snow Light Snow
2:53 AM 6.1 °F -6.8 °F -2.0 °F 69% 29.72 in 1.2 mi SW 8.1 mph - 0.00 in Snow Light Snow
3:02 AM 6.1 °F -6.8 °F -0.9 °F 73% 29.67 in 0.8 mi SW 8.1 mph - 0.00 in Snow Light Snow
3:11 AM 6.1 °F -7.8 °F -0.0 °F 76% 29.66 in 1.2 mi SSW 9.2 mph - 0.00 in Snow Light Snow
3:17 AM 6.1 °F -7.8 °F -0.0 °F 76% 29.66 in 0.8 mi SW 9.2 mph - 0.00 in Snow Light Snow
3:28 AM 5.0 °F -6.9 °F 1.0 °F 84% 29.64 in 1.0 mi SSW 6.9 mph - 0.00 in Snow Light Snow
3:49 AM 5.0 °F -2.1 °F 1.4 °F 85% 29.63 in 0.8 mi South 3.5 mph - 0.00 in Snow Light Snow
3:53 AM 5.0 °F -4.1 °F 1.0 °F 84% 29.67 in 0.8 mi SSW 4.6 mph - 0.00 in Snow Light Snow
4:08 AM 5.0 °F -5.6 °F 1.0 °F 84% 29.61 in 1.0 mi South 5.8 mph - 0.00 in Snow Light Snow
4:31 AM 6.1 °F -2.8 °F 1.0 °F 80% 29.59 in 1.2 mi South 4.6 mph - 0.00 in Snow Light Snow
4:53 AM 6.1 °F -4.3 °F 1.0 °F 80% 29.60 in 1.5 mi SSE 5.8 mph - 0.00 in Snow Light Snow
5:14 AM 6.1 °F -0.9 °F 1.9 °F 83% 29.54 in 1.0 mi SSW 3.5 mph - 0.00 in Snow Light Snow
5:38 AM 6.1 °F -5.6 °F 3.0 °F 87% 29.54 in 0.8 mi SW 6.9 mph - 0.00 in Snow Light Snow
5:53 AM 7.0 °F -4.5 °F 3.0 °F 84% 29.57 in 0.5 mi SW 6.9 mph - 0.00 in Fog , Snow Snow
6:00 AM 7.0 °F -1.7 °F 3.0 °F 84% 29.53 in 1.0 mi WSW 4.6 mph - 0.00 in Snow Light Snow
6:09 AM 7.0 °F -1.7 °F 3.0 °F 84% 29.52 in 0.8 mi SW 4.6 mph - 0.00 in Snow Light Snow
6:16 AM 7.0 °F -3.3 °F 3.0 °F 84% 29.52 in 1.0 mi WSW 5.8 mph - 0.00 in Snow Light Snow
6:53 AM 8.1 °F -3.2 °F 3.9 °F 83% 29.53 in 1.0 mi SSW 6.9 mph - 0.00 in Snow Light Snow
7:16 AM 9.0 °F -0.9 °F 5.0 °F 84% 29.49 in 2.5 mi SSW 5.8 mph - 0.00 in Snow Light Snow
7:27 AM 10.0 °F 0.4 °F 6.1 °F 84% 29.49 in 1.5 mi SSW 5.8 mph - 0.00 in Snow Light Snow
7:39 AM 10.0 °F 1.8 °F 7.0 °F 87% 29.48 in 2.0 mi South 4.6 mph - 0.00 in Snow Light Snow
7:51 AM 10.4 °F -0.4 °F 6.8 °F 85% 29.47 in 5.0 mi South 6.9 mph - 0.00 in Snow Light Snow
7:53 AM 10.9 °F 1.4 °F 7.0 °F 84% 29.51 in 7.0 mi South 5.8 mph - 0.00 in Snow Light Snow
8:53 AM 14.0 °F -0.2 °F 9.0 °F 80% 29.46 in 10.0 mi South 12.7 mph 19.6 mph 0.00 in   Overcast
9:53 AM 14.0 °F -0.2 °F 7.0 °F 74% 29.45 in 10.0 mi South 12.7 mph - N/A   Overcast
10:03 AM 12.9 °F -2.8 °F 7.0 °F 77% 29.41 in 10.0 mi SSW 15.0 mph - N/A   Overcast
10:48 AM 14.0 °F -0.2 °F 8.6 °F 79% 29.40 in 10.0 mi SSW 12.7 mph - N/A   Overcast
10:53 AM 14.0 °F 0.5 °F 8.1 °F 77% 29.43 in 10.0 mi SW 11.5 mph - N/A   Overcast
11:23 AM 16.0 °F 1.7 °F 10.0 °F 77% 29.38 in 10.0 mi SW 13.8 mph 18.4 mph N/A   Overcast
11:32 AM 17.1 °F 4.3 °F 10.0 °F 74% 29.38 in 10.0 mi WSW 11.5 mph - N/A   Overcast
11:53 AM 18.0 °F 6.9 °F 10.9 °F 74% 29.40 in 10.0 mi SW 9.2 mph - N/A   Overcast
12:53 PM 21.0 °F 6.6 °F 12.9 °F 71% 29.42 in 9.0 mi WSW 17.3 mph 25.3 mph N/A   Scattered Clouds
1:02 PM 21.0 °F 7.6 °F 14.0 °F 74% 29.38 in 8.0 mi West 15.0 mph 27.6 mph N/A   Mostly Cloudy
1:26 PM 21.0 °F 9.9 °F 12.9 °F 71% 29.37 in 10.0 mi West 10.4 mph 20.7 mph N/A   Partly Cloudy
1:53 PM 21.9 °F 7.3 °F 12.9 °F 68% 29.41 in 9.0 mi West 18.4 mph 26.5 mph N/A   Partly Cloudy
2:53 PM 23.0 °F 11.1 °F 14.0 °F 68% 29.42 in 10.0 mi West 12.7 mph 20.7 mph N/A   Clear
3:53 PM 24.1 °F 15.2 °F 15.1 °F 69% 29.44 in 10.0 mi West 8.1 mph - N/A   Mostly Cloudy
4:53 PM 26.1 °F 15.0 °F 17.1 °F 69% 29.44 in 10.0 mi WSW 12.7 mph 23.0 mph N/A   Overcast
5:53 PM 24.1 °F 11.5 °F 17.1 °F 75% 29.48 in 3.0 mi West 15.0 mph 21.9 mph 0.00 in Snow Light Snow
6:04 PM 24.1 °F 14.4 °F 18.0 °F 77% 29.44 in 2.5 mi West 9.2 mph 20.7 mph 0.00 in Snow Light Snow
6:27 PM 23.0 °F 9.2 °F 18.0 °F 81% 29.47 in 1.8 mi West 17.3 mph 24.2 mph 0.00 in Snow Light Snow
6:53 PM 21.9 °F 11.7 °F 19.0 °F 89% 29.50 in 1.2 mi West 9.2 mph - 0.00 in Snow Light Snow
7:06 PM 21.9 °F 11.7 °F 19.0 °F 89% 29.48 in 0.8 mi West 9.2 mph - 0.00 in Snow Light Snow
7:14 PM 21.9 °F 10.4 °F 18.0 °F 85% 29.48 in 1.5 mi West 11.5 mph 20.7 mph 0.00 in Snow Light Snow
7:21 PM 21.9 °F 9.2 °F 17.1 °F 82% 29.49 in 2.5 mi West 13.8 mph 24.2 mph 0.00 in Snow Light Snow
7:37 PM 21.9 °F 11.0 °F 16.0 °F 78% 29.49 in 5.0 mi WNW 10.4 mph 17.3 mph 0.00 in Snow Light Snow
7:48 PM 21.2 °F 7.3 °F 15.8 °F 80% 29.50 in 1.8 mi West 16.1 mph 27.6 mph 0.00 in Snow Light Snow
7:53 PM 21.0 °F 5.0 °F 16.0 °F 81% 29.54 in 0.8 mi West 21.9 mph 29.9 mph 0.00 in Snow Light Snow
8:12 PM 19.9 °F 4.8 °F 14.0 °F 78% 29.51 in 1.8 mi West 18.4 mph 31.1 mph 0.00 in Snow Light Snow
8:19 PM 19.9 °F 5.2 °F 12.0 °F 71% 29.51 in 2.5 mi WNW 17.3 mph 27.6 mph 0.00 in Snow Light Snow
8:29 PM 19.9 °F 5.2 °F 10.0 °F 65% 29.52 in 1.8 mi West 17.3 mph 28.8 mph 0.00 in   Overcast
8:33 PM 19.9 °F 5.7 °F 9.0 °F 62% 29.52 in 3.0 mi WNW 16.1 mph 28.8 mph 0.00 in   Overcast
8:53 PM 18.0 °F 3.6 °F 8.1 °F 65% 29.57 in 1.5 mi WNW 15.0 mph 34.5 mph 0.00 in Snow Light Snow
9:22 PM 15.1 °F -2.0 °F 3.0 °F 59% 29.57 in 2.0 mi WNW 19.6 mph 32.2 mph 0.00 in   Overcast
9:37 PM 14.0 °F -3.9 °F 1.9 °F 59% 29.58 in 1.8 mi West 20.7 mph 32.2 mph 0.00 in Snow Light Snow
9:53 PM 12.9 °F -3.4 °F 5.0 °F 71% 29.64 in 1.0 mi WNW 16.1 mph 32.2 mph 0.00 in Snow Light Snow
10:01 PM 12.0 °F -5.6 °F 5.0 °F 73% 29.61 in 0.8 mi WNW 18.4 mph 35.7 mph 0.00 in Snow Light Snow
10:10 PM 10.9 °F -7.0 °F 3.0 °F 70% 29.62 in 2.0 mi WNW 18.4 mph 33.4 mph 0.00 in   Mostly Cloudy
10:16 PM 10.9 °F -6.5 °F 1.9 °F 67% 29.63 in 4.0 mi WNW 17.3 mph 33.4 mph 0.00 in   Scattered Clouds
10:31 PM 10.9 °F -7.5 °F -0.0 °F 61% 29.64 in 2.0 mi WNW 19.6 mph 32.2 mph 0.00 in   Scattered Clouds
10:53 PM 9.0 °F -12.2 °F -0.9 °F 64% 29.72 in 1.8 mi WNW 25.3 mph 36.8 mph 0.00 in   Overcast
11:06 PM 9.0 °F -9.0 °F -2.0 °F 61% 29.69 in 3.0 mi WNW 17.3 mph 28.8 mph 0.00 in   Mostly Cloudy
11:29 PM 7.0 °F -12.1 °F -2.0 °F 67% 29.73 in 2.5 mi WNW 18.4 mph 39.1 mph 0.00 in   Scattered Clouds
11:37 PM 7.0 °F -12.6 °F -2.0 °F 67% 29.74 in 5.0 mi WNW 19.6 mph 27.6 mph 0.00 in   Haze
11:53 PM 6.1 °F -13.3 °F -2.9 °F 67% 29.80 in 4.0 mi WNW 18.4 mph 36.8 mph 0.00 in Snow Blowing Snow